TimeEDT,TemperatureF,Dew PointF,Humidity,Sea Level PressureIn,VisibilityMPH,Wind Direction,Wind SpeedMPH,Gust SpeedMPH,PrecipitationIn,Events,Conditions,WindDirDegrees,DateUTC
12:15 AM,24.8,19.4,80,30.22,10.0,WNW,5.8,-,N/A,,Clear,290,2014-04-16 04:15:00
12:35 AM,26.6,19.4,74,30.22,10.0,WNW,5.8,-,N/A,,Clear,300,2014-04-16 04:35:00
12:55 AM,26.6,17.6,69,30.22,10.0,WNW,6.9,-,N/A,,Clear,300,2014-04-16 04:55:00
1:16 AM,26.6,17.6,69,30.22,10.0,WNW,6.9,-,N/A,,Clear,300,2014-04-16 05:16:00
1:35 AM,24.8,17.6,74,30.22,10.0,WNW,5.8,-,N/A,,Clear,300,2014-04-16 05:35:00
1:55 AM,26.6,17.6,69,30.22,10.0,NW,5.8,-,N/A,,Clear,310,2014-04-16 05:55:00
2:15 AM,26.6,17.6,69,30.22,10.0,WNW,6.9,-,N/A,,Clear,300,2014-04-16 06:15:00
2:35 AM,26.6,17.6,69,30.23,10.0,WNW,6.9,-,N/A,,Clear,300,2014-04-16 06:35:00
2:56 AM,24.8,17.6,74,30.23,10.0,WNW,4.6,-,N/A,,Clear,300,2014-04-16 06:56:00
3:15 AM,24.8,17.6,74,30.24,10.0,WNW,4.6,-,N/A,,Clear,300,2014-04-16 07:15:00
3:35 AM,24.8,15.8,69,30.26,10.0,WNW,3.5,-,N/A,,Clear,300,2014-04-16 07:35:00
3:56 AM,24.8,17.6,74,30.27,10.0,WNW,4.6,-,N/A,,Clear,300,2014-04-16 07:56:00
4:15 AM,24.8,15.8,69,30.28,10.0,NW,3.5,-,N/A,,Clear,320,2014-04-16 08:15:00
4:35 AM,24.8,15.8,69,30.29,10.0,Calm,Calm,-,N/A,,Clear,0,2014-04-16 08:35:00
4:56 AM,24.8,15.8,69,30.30,10.0,NW,3.5,-,N/A,,Clear,320,2014-04-16 08:56:00
5:15 AM,24.8,15.8,69,30.31,10.0,WNW,4.6,-,N/A,,Clear,300,2014-04-16 09:15:00
5:35 AM,24.8,15.8,69,30.32,10.0,Calm,Calm,-,N/A,,Clear,0,2014-04-16 09:35:00
5:56 AM,23.0,19.4,86,30.34,10.0,Calm,Calm,-,N/A,,Clear,0,2014-04-16 09:56:00
6:15 AM,23.0,19.4,86,30.34,10.0,Calm,Calm,-,N/A,,Clear,0,2014-04-16 10:15:00
6:35 AM,21.2,17.6,86,30.35,10.0,Calm,Calm,-,N/A,,Clear,0,2014-04-16 10:35:00
6:56 AM,21.2,17.6,86,30.36,10.0,Calm,Calm,-,N/A,,Clear,0,2014-04-16 10:56:00
7:15 AM,23.0,17.6,80,30.37,10.0,Calm,Calm,-,N/A,,Clear,0,2014-04-16 11:15:00
7:36 AM,24.8,17.6,74,30.38,10.0,Calm,Calm,-,N/A,,Clear,0,2014-04-16 11:36:00
7:55 AM,24.8,21.2,86,30.39,10.0,SSE,3.5,-,N/A,,Clear,160,2014-04-16 11:55:00
8:16 AM,26.6,19.4,74,30.40,10.0,Calm,Calm,-,N/A,,Clear,0,2014-04-16 12:16:00
8:35 AM,28.4,19.4,69,30.41,10.0,Calm,Calm,-,N/A,,Clear,0,2014-04-16 12:35:00
8:56 AM,30.2,19.4,64,30.42,10.0,Calm,Calm,-,N/A,,Clear,0,2014-04-16 12:56:00
9:15 AM,30.2,21.2,69,30.42,10.0,East,4.6,-,N/A,,Clear,90,2014-04-16 13:15:00
9:55 AM,32.0,23.0,69,30.42,10.0,East,8.1,-,N/A,,Clear,100,2014-04-16 13:55:00
10:16 AM,32.0,21.2,64,30.43,10.0,ESE,6.9,-,N/A,,Clear,120,2014-04-16 14:16:00
10:35 AM,33.8,21.2,60,30.43,10.0,ESE,5.8,-,N/A,,Clear,120,2014-04-16 14:35:00
10:56 AM,33.8,21.2,60,30.43,10.0,SE,6.9,-,N/A,,Clear,130,2014-04-16 14:56:00
11:15 AM,35.6,23.0,60,30.43,10.0,ENE,8.1,-,N/A,,Clear,60,2014-04-16 15:15:00
11:35 AM,35.6,21.2,56,30.43,10.0,ENE,8.1,-,N/A,,Clear,60,2014-04-16 15:35:00
11:56 AM,35.6,21.2,56,30.43,10.0,ESE,9.2,-,N/A,,Clear,110,2014-04-16 15:56:00
12:15 PM,37.4,24.8,60,30.43,10.0,East,8.1,-,N/A,,Scattered Clouds,80,2014-04-16 16:15:00
12:35 PM,37.4,23.0,56,30.43,10.0,SE,4.6,-,N/A,,Scattered Clouds,130,2014-04-16 16:35:00
12:56 PM,39.2,24.8,56,30.42,10.0,East,9.2,-,N/A,,Clear,100,2014-04-16 16:56:00
1:15 PM,39.2,23.0,52,30.41,10.0,East,8.1,-,N/A,,Clear,90,2014-04-16 17:15:00
1:35 PM,39.2,24.8,56,30.41,10.0,ESE,6.9,-,N/A,,Clear,120,2014-04-16 17:35:00
1:56 PM,41.0,24.8,53,30.41,10.0,East,9.2,16.1,N/A,,Clear,80,2014-04-16 17:56:00
2:15 PM,41.0,24.8,53,30.40,10.0,ESE,3.5,-,N/A,,Clear,120,2014-04-16 18:15:00
2:36 PM,42.8,24.8,49,30.39,10.0,ESE,12.7,-,N/A,,Clear,110,2014-04-16 18:36:00
2:56 PM,42.8,23.0,46,30.39,10.0,East,10.4,-,N/A,,Clear,100,2014-04-16 18:56:00
3:15 PM,44.6,26.6,49,30.39,10.0,East,8.1,16.1,N/A,,Clear,100,2014-04-16 19:15:00
3:36 PM,44.6,23.0,43,30.37,10.0,ESE,9.2,20.7,N/A,,Clear,110,2014-04-16 19:36:00
3:56 PM,44.6,23.0,43,30.37,10.0,SE,9.2,17.3,N/A,,Clear,130,2014-04-16 19:56:00
4:15 PM,44.6,23.0,43,30.36,10.0,East,8.1,-,N/A,,Clear,100,2014-04-16 20:15:00
4:35 PM,44.6,23.0,43,30.35,10.0,SE,9.2,-,N/A,,Clear,130,2014-04-16 20:35:00
4:56 PM,44.6,23.0,43,30.35,10.0,East,9.2,-,N/A,,Clear,100,2014-04-16 20:56:00
5:15 PM,46.4,23.0,40,30.35,10.0,ESE,5.8,-,N/A,,Clear,110,2014-04-16 21:15:00
5:36 PM,44.6,23.0,43,30.34,10.0,SE,5.8,-,N/A,,Clear,130,2014-04-16 21:36:00
5:55 PM,44.6,21.2,39,30.34,10.0,ESE,6.9,-,N/A,,Clear,120,2014-04-16 21:55:00
6:16 PM,44.6,21.2,39,30.34,10.0,ESE,9.2,-,N/A,,Clear,110,2014-04-16 22:16:00
6:35 PM,44.6,19.4,37,30.34,10.0,East,10.4,-,N/A,,Clear,100,2014-04-16 22:35:00
6:56 PM,44.6,19.4,37,30.34,10.0,ESE,9.2,-,N/A,,Clear,110,2014-04-16 22:56:00
7:15 PM,42.8,21.2,42,30.34,10.0,ESE,8.1,-,N/A,,Clear,110,2014-04-16 23:15:00
7:56 PM,42.8,21.2,42,30.33,10.0,East,5.8,-,N/A,,Clear,100,2014-04-16 23:56:00
8:15 PM,41.0,21.2,45,30.33,10.0,East,6.9,-,N/A,,Clear,100,2014-04-17 00:15:00
8:36 PM,39.2,23.0,52,30.33,10.0,East,5.8,-,N/A,,Clear,90,2014-04-17 00:36:00
8:55 PM,39.2,23.0,52,30.33,10.0,East,8.1,-,N/A,,Clear,90,2014-04-17 00:55:00
9:16 PM,39.2,23.0,52,30.33,10.0,East,8.1,-,N/A,,Clear,90,2014-04-17 01:16:00
9:35 PM,39.2,21.2,49,30.34,10.0,East,10.4,-,N/A,,Clear,90,2014-04-17 01:35:00
9:56 PM,39.2,21.2,49,30.33,10.0,East,10.4,-,N/A,,Clear,90,2014-04-17 01:56:00
10:15 PM,39.2,21.2,49,30.33,10.0,East,10.4,-,N/A,,Clear,90,2014-04-17 02:15:00
10:36 PM,37.4,21.2,52,30.32,10.0,East,9.2,-,N/A,,Clear,90,2014-04-17 02:36:00
10:56 PM,37.4,21.2,52,30.33,10.0,East,10.4,-,N/A,,Clear,90,2014-04-17 02:56:00
11:15 PM,37.4,21.2,52,30.33,10.0,East,10.4,-,N/A,,Clear,90,2014-04-17 03:15:00
11:36 PM,37.4,21.2,52,30.33,10.0,East,10.4,-,N/A,,Clear,90,2014-04-17 03:36:00
11:55 PM,37.4,21.2,52,30.33,10.0,East,9.2,-,N/A,,Clear,90,2014-04-17 03:55:00